Location: Unspecified
(0.0000°N, 0.0000°E)
Time: 03:09:14
(UTC+00:00)

deb Explorer IX - Pass Details

Date: 19 December 2018
Orbit: 538 x 1115 km, 38.8° (Epoch: 14 January)

Event Time Altitude Azimuth Distance (km) Brightness Sun altitude
Rises 23:58:27 0° 334° (NNW) 2,828 - -66.6°
Reaches altitude 10° 00:00:59 10° 349° (N) 2,001 - -66.6°
Maximum altitude 00:04:44 24° 43° (NE) 1,410 - -66.5°
Drops below altitude 10° 00:08:57 10° 96° (E) 2,284 - -66.4°
Sets 00:12:03 0° 109° (ESE) 3,332 - -66.3°
